Time,TemperatureF,DewpointF,PressureIn,WindDirection,WindDirectionDegrees,WindSpeedMPH,WindSpeedGustMPH,Humidity,HourlyPrecipIn,Conditions,Clouds,dailyrainin,SoftwareType,DateUTC
2015-04-27 08:00:00,34.0,27.0,-100.00,SSE,164,3.0,4.0,75,-99.99,,,-99.99,,2015-04-27 14:00:00,
2015-04-27 08:31:00,34.0,27.0,-100.00,SSE,164,3.0,4.0,75,-99.99,,,-99.99,,2015-04-27 14:31:00,
2015-04-27 08:42:00,34.0,27.0,-100.00,SSE,164,3.0,4.0,75,-99.99,,,-99.99,,2015-04-27 14:42:00,
2015-04-27 08:51:00,34.0,27.0,-100.00,SSE,164,3.0,4.0,75,-99.99,,,-99.99,,2015-04-27 14:51:00,
2015-04-27 09:00:00,45.0,25.0,-100.00,North,8,3.0,6.0,46,-99.99,,,-99.99,,2015-04-27 15:00:00,
2015-04-27 09:31:00,45.0,25.0,-100.00,North,8,3.0,6.0,46,-99.99,,,-99.99,,2015-04-27 15:31:00,
2015-04-27 09:42:00,45.0,25.0,-100.00,North,8,3.0,6.0,46,-99.99,,,-99.99,,2015-04-27 15:42:00,
2015-04-27 09:51:00,45.0,25.0,-100.00,North,8,3.0,6.0,46,-99.99,,,-99.99,,2015-04-27 15:51:00,
2015-04-27 10:00:00,49.0,25.0,-100.00,North,355,7.0,12.0,38,-99.99,,,-99.99,,2015-04-27 16:00:00,
2015-04-27 10:32:00,49.0,25.0,-100.00,North,355,7.0,12.0,38,-99.99,,,-99.99,,2015-04-27 16:32:00,
2015-04-27 10:42:00,49.0,25.0,-100.00,North,355,7.0,12.0,38,-99.99,,,-99.99,,2015-04-27 16:42:00,
2015-04-27 10:52:00,49.0,25.0,-100.00,North,355,7.0,12.0,38,-99.99,,,-99.99,,2015-04-27 16:52:00,
2015-04-27 11:00:00,52.0,27.0,-100.00,ENE,65,7.0,14.0,37,-99.99,,,-99.99,,2015-04-27 17:00:00,
2015-04-27 11:32:00,52.0,27.0,-100.00,ENE,65,7.0,14.0,37,-99.99,,,-99.99,,2015-04-27 17:32:00,
2015-04-27 11:42:00,52.0,27.0,-100.00,ENE,65,7.0,14.0,37,-99.99,,,-99.99,,2015-04-27 17:42:00,
2015-04-27 11:55:00,52.0,27.0,-100.00,ENE,65,7.0,14.0,37,-99.99,,,-99.99,,2015-04-27 17:55:00,
2015-04-27 12:00:00,55.0,30.0,-100.00,East,98,2.0,13.0,38,-99.99,,,-99.99,,2015-04-27 18:00:00,
2015-04-27 12:32:00,55.0,30.0,-100.00,East,98,2.0,13.0,38,-99.99,,,-99.99,,2015-04-27 18:32:00,
2015-04-27 12:42:00,55.0,30.0,-100.00,East,98,2.0,13.0,38,-99.99,,,-99.99,,2015-04-27 18:42:00,
2015-04-27 12:52:00,55.0,30.0,-100.00,East,98,2.0,13.0,38,-99.99,,,-99.99,,2015-04-27 18:52:00,
2015-04-27 13:00:00,57.0,28.0,-100.00,NNW,336,6.0,13.0,33,-99.99,,,-99.99,,2015-04-27 19:00:00,
2015-04-27 13:32:00,57.0,28.0,-100.00,NNW,336,6.0,13.0,33,-99.99,,,-99.99,,2015-04-27 19:32:00,
2015-04-27 13:43:00,57.0,28.0,-100.00,NNW,336,6.0,13.0,33,-99.99,,,-99.99,,2015-04-27 19:43:00,
2015-04-27 13:52:00,57.0,28.0,-100.00,NNW,336,6.0,13.0,33,-99.99,,,-99.99,,2015-04-27 19:52:00,
2015-04-27 14:00:00,59.0,28.0,-100.00,NE,35,6.0,16.0,31,-99.99,,,-99.99,,2015-04-27 20:00:00,
2015-04-27 14:22:00,59.0,28.0,-100.00,NE,35,6.0,16.0,31,-99.99,,,-99.99,,2015-04-27 20:22:00,
2015-04-27 14:31:00,59.0,28.0,-100.00,NE,35,6.0,16.0,31,-99.99,,,-99.99,,2015-04-27 20:31:00,
2015-04-27 14:42:00,59.0,28.0,-100.00,NE,35,6.0,16.0,31,-99.99,,,-99.99,,2015-04-27 20:42:00,
2015-04-27 14:51:00,59.0,28.0,-100.00,NE,35,6.0,16.0,31,-99.99,,,-99.99,,2015-04-27 20:51:00,
2015-04-27 15:00:00,62.0,29.0,-100.00,North,349,4.0,14.0,29,-99.99,,,-99.99,,2015-04-27 21:00:00,
2015-04-27 15:32:00,62.0,29.0,-100.00,North,349,4.0,14.0,29,-99.99,,,-99.99,,2015-04-27 21:32:00,
2015-04-27 15:42:00,62.0,29.0,-100.00,North,349,4.0,14.0,29,-99.99,,,-99.99,,2015-04-27 21:42:00,
2015-04-27 15:51:00,62.0,29.0,-100.00,North,349,4.0,14.0,29,-99.99,,,-99.99,,2015-04-27 21:51:00,
2015-04-27 16:00:00,62.0,26.0,-100.00,East,90,6.0,16.0,25,-99.99,,,-99.99,,2015-04-27 22:00:00,
2015-04-27 16:31:00,62.0,26.0,-100.00,East,90,6.0,16.0,25,-99.99,,,-99.99,,2015-04-27 22:31:00,
2015-04-27 16:41:00,62.0,26.0,-100.00,East,90,6.0,16.0,25,-99.99,,,-99.99,,2015-04-27 22:41:00,
2015-04-27 16:52:00,62.0,26.0,-100.00,East,90,6.0,16.0,25,-99.99,,,-99.99,,2015-04-27 22:52:00,
2015-04-27 17:00:00,63.0,24.0,-100.00,NE,56,6.0,15.0,22,-99.99,,,-99.99,,2015-04-27 23:00:00,
2015-04-27 17:31:00,63.0,24.0,-100.00,NE,56,6.0,15.0,22,-99.99,,,-99.99,,2015-04-27 23:31:00,
2015-04-27 17:42:00,63.0,24.0,-100.00,NE,56,6.0,15.0,22,-99.99,,,-99.99,,2015-04-27 23:42:00,
2015-04-27 17:52:00,63.0,24.0,-100.00,NE,56,6.0,15.0,22,-99.99,,,-99.99,,2015-04-27 23:52:00,
2015-04-27 18:00:00,63.0,24.0,-100.00,ENE,78,7.0,14.0,22,-99.99,,,-99.99,,2015-04-28 00:00:00,
2015-04-27 18:32:00,63.0,24.0,-100.00,ENE,78,7.0,14.0,22,-99.99,,,-99.99,,2015-04-28 00:32:00,
2015-04-27 18:42:00,63.0,24.0,-100.00,ENE,78,7.0,14.0,22,-99.99,,,-99.99,,2015-04-28 00:42:00,
2015-04-27 18:51:00,63.0,24.0,-100.00,ENE,78,7.0,14.0,22,-99.99,,,-99.99,,2015-04-28 00:51:00,
2015-04-27 19:00:00,63.0,24.0,-100.00,ENE,67,8.0,14.0,22,-99.99,,,-99.99,,2015-04-28 01:00:00,
2015-04-27 19:31:00,63.0,24.0,-100.00,ENE,67,8.0,14.0,22,-99.99,,,-99.99,,2015-04-28 01:31:00,
2015-04-27 19:42:00,63.0,24.0,-100.00,ENE,67,8.0,14.0,22,-99.99,,,-99.99,,2015-04-28 01:42:00,
2015-04-27 19:51:00,63.0,24.0,-100.00,ENE,67,8.0,14.0,22,-99.99,,,-99.99,,2015-04-28 01:51:00,
2015-04-27 20:00:00,59.0,22.0,-100.00,ENE,77,4.0,11.0,24,-99.99,,,-99.99,,2015-04-28 02:00:00,
2015-04-27 20:31:00,59.0,22.0,-100.00,ENE,77,4.0,11.0,24,-99.99,,,-99.99,,2015-04-28 02:31:00,
2015-04-27 20:42:00,59.0,22.0,-100.00,ENE,77,4.0,11.0,24,-99.99,,,-99.99,,2015-04-28 02:42:00,
2015-04-27 20:51:00,59.0,22.0,-100.00,ENE,77,4.0,11.0,24,-99.99,,,-99.99,,2015-04-28 02:51:00,